Location: Wald
(31.7579°N, 86.6655°W)
Time: 11:43:20
(UTC+00:00)

ATLAS 5 CENTAUR R/B - Pass Details

Date: 14 July 2020
Orbit: 534 x 1124 km, 63.4° (Epoch: 03 August)

Event Time Altitude Azimuth Distance (km) Brightness Sun altitude
Rises 08:24:52 0° 340° (NNW) 3,397 5.8 -25.4°
Reaches altitude 10° 08:27:25 10° 350° (N) 2,552 5.2 -25.1°
Maximum altitude 08:32:56 36° 55° (NE) 1,507 4.0 -24.3°
Drops below altitude 10° 08:39:08 10° 120° (ESE) 2,878 5.1 -23.4°
Sets 08:42:10 0° 128° (SE) 3,886 5.7 -23.0°
